North Myrtle Beach, SC

11:51 PM EST on November 14, 2019 (GMT -0500)
Grand Strand

Weather History for KCRE - August, 2019

Change the Weather History Date:

Sunday, August 11, 2019

  Actual Average Record
Temperature  
Mean Temperature 83 °F 79 °F  
Max Temperature 88 °F 86 °F 95 °F (1991)
Min Temperature 77 °F 72 °F 58 °F (1944)
Degree Days  
Heating Degree Days 0 0  
Month to date heating degree days 0 0  
Since 1 June heating degree days 0 0  
Since 1 July heating degree days 0 0  
Cooling Degree Days 18 14  
Month to date cooling degree days 181 159  
Year to date cooling degree days 1473 1204  
Since 1 June cooling degree days 1080 992  
Growing Degree Days 32 (Base 50)    
Moisture  
Dew Point 76 °F    
Average Humidity 79    
Maximum Humidity 97    
Minimum Humidity 61    
Precipitation  
Precipitation 1.47 in 0.20 in 2.70 in (2007)
Month to date precipitation 1.95 2.27  
Year to date precipitation 24.96 30.21  
Sea Level Pressure  
Sea Level Pressure 29.96 in    
Wind  
Wind Speed 6 mph (ENE)    
Max Wind Speed 24 mph    
Max Gust Speed 26 mph    
Visibility 7 miles    
Events Rain , Thunderstorm    
T = Trace of Precipitation, MM = Missing Value Source: NWS Daily Summary

Daily Weather History Graph

Daily Weather History Graph

Search for Another Location

Airport or City:

Astronomy

Aug. 11, 2019 Rise Set
Actual Time 6:33 AM EDT 8:05 PM EDT
Civil Twilight 6:07 AM EDT 8:32 PM EDT
Nautical Twilight 5:35 AM EDT 9:04 PM EDT
Astronomical Twilight 5:01 AM EDT 9:37 PM EDT
Moon 5:37 PM EDT (8/11) 2:58 AM EDT (8/11)
Length of Visible Light 14h 25m
Length of Day
13h 32m
Waxing Gibbous, 87% of the Moon is Illuminated
Aug 11
Waxing Gibbous
Aug 15
Full
Aug 23
Last Quarter
Aug 30
New
Sep 5
First Quarter

Hourly Weather History & Observations

Time (EDT) Temp. Heat Index Dew Point Humidity Pressure Visibility Wind Dir Wind Speed Gust Speed Precip Events Conditions
12:53 AM 84.0 °F 97.3 °F 80.1 °F 88% 29.91 in 10.0 mi West 4.6 mph - N/A   Partly Cloudy
1:53 AM 82.9 °F 93.8 °F 79.0 °F 88% 29.90 in 10.0 mi West 4.6 mph - N/A   Mostly Cloudy
2:53 AM 81.0 °F 88.6 °F 78.1 °F 91% 29.88 in 10.0 mi West 5.8 mph - 0.00 in   Partly Cloudy
3:53 AM 79.0 °F - 73.9 °F 84% 29.89 in 8.0 mi SSW 21.9 mph 26.5 mph 0.02 in Rain , Thunderstorm Light Rain
4:13 AM 78.1 °F - 75.0 °F 90% 29.88 in 10.0 mi Calm Calm - 0.04 in Rain Light Rain
4:53 AM 77.0 °F - 75.0 °F 94% 29.88 in 10.0 mi SW 3.5 mph - 0.04 in   Clear
5:53 AM 77.0 °F - 75.9 °F 96% 29.89 in 8.0 mi North 3.5 mph - N/A   Clear
6:39 AM 77.0 °F - 75.9 °F 96% 29.91 in 7.0 mi NNE 5.8 mph - N/A   Partly Cloudy
6:53 AM 78.1 °F - 75.9 °F 93% 29.93 in 6.0 mi ENE 12.7 mph - N/A   Mostly Cloudy
7:16 AM 78.1 °F - 77.0 °F 96% 29.93 in 5.0 mi NE 9.2 mph - N/A   Overcast
7:44 AM 78.1 °F - 77.0 °F 96% 29.94 in 6.0 mi NNE 6.9 mph - N/A   Overcast
7:53 AM 79.0 °F - 77.0 °F 94% 29.95 in 6.0 mi NNE 8.1 mph - N/A   Overcast
8:40 AM 81.0 °F 88.6 °F 78.1 °F 91% 29.95 in 8.0 mi ESE 6.9 mph - N/A   Overcast
8:53 AM 82.9 °F 91.8 °F 77.0 °F 82% 29.96 in 10.0 mi ESE 8.1 mph - N/A   Mostly Cloudy
9:15 AM 84.0 °F 92.6 °F 75.9 °F 76% 29.95 in 10.0 mi East 5.8 mph - N/A   Partly Cloudy
9:53 AM 86.0 °F 95.1 °F 75.0 °F 70% 29.96 in 10.0 mi ENE 6.9 mph - N/A   Partly Cloudy
10:53 AM 86.0 °F 93.8 °F 73.9 °F 67% 29.98 in 10.0 mi SE 8.1 mph - N/A   Scattered Clouds
11:53 AM 84.9 °F 94.1 °F 75.9 °F 74% 29.99 in 10.0 mi SE 8.1 mph - N/A   Mostly Cloudy
12:43 PM 82.0 °F 91.6 °F 79.0 °F 90% 29.98 in 1.8 mi East 5.8 mph - 0.15 in Rain Heavy Rain
12:53 PM 80.1 °F 86.4 °F 78.1 °F 94% 29.99 in 1.2 mi ENE 11.5 mph - 0.32 in Rain Heavy Rain
1:02 PM 80.1 °F 86.4 °F 78.1 °F 94% 29.98 in 2.0 mi East 10.4 mph - 0.07 in Rain , Thunderstorm Heavy Thunderstorms and Rain
1:11 PM 79.0 °F - 77.0 °F 94% 29.99 in 1.8 mi East 10.4 mph - 0.17 in Rain , Thunderstorm Heavy Thunderstorms and Rain
1:16 PM 78.1 °F - 75.9 °F 93% 30.00 in 3.0 mi NE 11.5 mph - 0.18 in Rain , Thunderstorm Light Thunderstorms and Rain
1:19 PM 78.1 °F - 75.9 °F 93% 29.99 in 2.5 mi ENE 11.5 mph - 0.22 in Rain Rain
1:27 PM 78.1 °F - 77.0 °F 96% 29.99 in 1.8 mi East 10.4 mph 16.1 mph 0.30 in Rain Heavy Rain
1:35 PM 79.0 °F - 77.0 °F 94% 29.98 in 3.0 mi East 8.1 mph - 0.32 in Rain Rain
1:53 PM 79.0 °F - 77.0 °F 94% 29.99 in 6.0 mi East 6.9 mph - 0.34 in Rain Rain
1:56 PM 79.0 °F - 78.1 °F 97% 29.99 in 5.0 mi ENE 6.9 mph - 0.00 in Rain , Thunderstorm Rain
2:05 PM 79.0 °F - 78.1 °F 97% 29.99 in 1.8 mi ENE 11.5 mph - 0.14 in Rain , Thunderstorm Heavy Rain
2:29 PM 78.1 °F - 77.0 °F 96% 29.98 in 1.2 mi East 4.6 mph - 0.67 in Rain Heavy Rain
2:40 PM 79.0 °F - 75.9 °F 90% 29.98 in 3.0 mi NE 6.9 mph - 0.73 in Rain Rain
2:53 PM 79.0 °F - 75.9 °F 90% 29.99 in 7.0 mi Variable 3.5 mph - 0.74 in Rain Light Rain
3:53 PM 81.0 °F 87.9 °F 77.0 °F 88% 29.95 in 10.0 mi ESE 3.5 mph - 0.01 in   Mostly Cloudy
4:53 PM 84.9 °F 92.1 °F 73.9 °F 69% 29.96 in 10.0 mi East 4.6 mph - N/A   Mostly Cloudy
5:53 PM 86.0 °F 92.2 °F 72.0 °F 63% 29.95 in 10.0 mi ESE 3.5 mph - N/A   Clear
6:53 PM 86.0 °F 93.8 °F 73.9 °F 67% 29.93 in 10.0 mi NNE 5.8 mph - N/A   Clear
7:53 PM 82.0 °F 89.4 °F 75.9 °F 82% 29.94 in 10.0 mi Calm Calm - N/A   Clear
8:53 PM 81.0 °F 87.3 °F 75.9 °F 85% 29.96 in 10.0 mi ESE 3.5 mph - N/A   Partly Cloudy
9:14 PM 82.9 °F 91.8 °F 77.0 °F 82% 29.97 in 10.0 mi ESE 3.5 mph - N/A   Mostly Cloudy
9:41 PM 82.9 °F 91.8 °F 77.0 °F 82% 29.98 in 10.0 mi ESE 8.1 mph - N/A   Mostly Cloudy
9:53 PM 80.1 °F 85.8 °F 77.0 °F 90% 29.98 in 10.0 mi NNE 4.6 mph - N/A   Scattered Clouds
10:53 PM 79.0 °F - 75.9 °F 90% 29.99 in 10.0 mi NNE 4.6 mph - N/A   Partly Cloudy
11:53 PM 79.0 °F - 75.9 °F 90% 29.99 in 10.0 mi NNE 4.6 mph - N/A   Scattered Clouds